Regional Weather Roundup
Issued by NWS Memphis, TN

Home | Current Version | Previous Version | Text Only | Print | Product List | Glossary On
Versions: 1 2 3 4 5 6 7 8 9 10 11 12 13 14 15 16 17 18 19 20 21 22 23 24 25 26 27 28 29 30 31 32 33 34 35 36 37 38 39 40 41 42 43 44 45 46 47 48 49 50
000
ASUS44 KMEG 031000
RWRMEG
MEMPHIS CWA HOURLY WEATHER ROUNDUP
NATIONAL WEATHER SERVICE MEMPHIS TN
500 AM CDT WED JUN 03 2015

...WEST TENNESSEE...

CITY           SKY/WX    TMP DP  RH WIND       PRES   REMARKS
MEMPHIS INTL   PTCLDY    63  59  87 N3        30.01R
NWS MEMPHIS      N/A     57 N/A N/A MISG        N/A
JACKSON        CLOUDY    59  57  93 CALM      30.01S
LEXINGTON      CLOUDY    61  59  94 CALM      30.00S
DYERSBURG      PTCLDY    63  48  59 E6        30.02S
PARIS          CLOUDY    59  57  94 NE3       30.03R


...EASTERN ARKANSAS...

CITY           SKY/WX    TMP DP  RH WIND       PRES   REMARKS
JONESBORO      CLEAR     57  56  96 CALM      30.02R FOG
WEST MEMPHIS   CLEAR     58  58 100 NW3       30.00S FOG
BATESVILLE     CLOUDY    61  57  88 CALM      30.02S
WALNUT RIDGE   CLEAR     55  54  94 N5        30.03R
BLYTHEVILLE    CLEAR     58  57  97 N3        30.02S FOG
SEARCY         CLOUDY    63  60  90 N3        30.03R
STUTTGART      CLOUDY    63  59  88 NE7       30.00S
PINE BLUFF     CLOUDY    64  62  93 NE3       30.00R
MONTICELLO     CLEAR     62  61  96 CALM      29.99R


...NORTH MISSISSIPPI...

CITY           SKY/WX    TMP DP  RH WIND       PRES   REMARKS
TUPELO         CLEAR     58  56  93 NE5       29.99S FOG
TUNICA           N/A     59  59 100 CALM      30.01S FOG
GREENWOOD      CLEAR     60  57  89 NE3       29.98R FOG
STARKVILLE     FAIR      59  59 100 CALM      29.98S FOG
GOLDEN TRIANGL CLEAR     61  57  88 NW5       29.97R


...SOUTHEAST MISSOURI...

CITY           SKY/WX    TMP DP  RH WIND       PRES   REMARKS
WEST PLAINS    CLOUDY    57  54  89 CALM      30.04F
POPLAR BLUFF   CLEAR     56  54  93 CALM      30.03R FOG
CAPE GIRARDEAU CLOUDY    62  59  90 CALM      30.03S


...NORTHWEST ALABAMA...

CITY           SKY/WX    TMP DP  RH WIND       PRES   REMARKS
MUSCLE SHOALS  PTCLDY    59  56  89 CALM      30.00R


...MIDDLE TENNESSEE...

CITY           SKY/WX    TMP DP  RH WIND       PRES   REMARKS
NASHVILLE      PTCLDY    59  57  93 N5        30.02S
CLARKSVILLE    PTCLDY    58  56  93 NE5       30.03R
COLUMBIA       CLOUDY    63  61  94 NE3       29.99R


...WESTERN KENTUCKY...

CITY           SKY/WX    TMP DP  RH WIND       PRES   REMARKS
PADUCAH        CLOUDY    62  58  86 CALM      30.03R FOG


...CENTRAL ARKANSAS...

CITY           SKY/WX    TMP DP  RH WIND       PRES   REMARKS
LITTLE ROCK    MOCLDY    67  60  78 E5        30.00S


SKY/WX REPORTED AS FAIR MEANS FEW OR NO CLOUDS BELOW
12 THOUSAND FEET.



USA.gov is the U.S. government's official web portal to all federal, state and local government web resources and services.